Regional Weather Roundup
Issued by NWS

Home | Current Version | Previous Version | Text Only | Print | Product List | Glossary Off
Versions: 1 2 3 4 5 6 7 8 9 10 11 12 13 14 15 16 17 18 19 20 21 22 23 24 25 26 27 28 29 30 31 32 33 34 35 36 37 38 39 40 41 42 43 44 45 46 47 48 49 50

967
ASUS43 KLOT 271009
RWRIL

ILLINOIS REGIONAL WEATHER ROUNDUP
NATIONAL WEATHER SERVICE CHICAGO/ROMEOVILLE IL
500 AM CDT THU APR 27 2017

NOTE: "FAIR" INDICATES FEW OR NO CLOUDS BELOW 12,000 FEET WITH NO
SIGNIFICANT WEATHER AND/OR OBSTRUCTIONS TO VISIBILITY.

* THESE STATIONS ARE NOT UNDER NWS QUALITY CONTROL. THEY ALSO MAY NOT
  REPORT WEATHER SUCH AS PRECIPITATION OR FOG.

ILZ001-002-007-009-015-016-024-271100-
NORTHWEST ILLINOIS

CITY           SKY/WX    TMP DP  RH WIND       PRES   REMARKS
MOLINE         LGT RAIN  41  37  86 W18G26    29.47R
STERLING*      LGT RAIN  42  41  96 W16       29.40S
SAVANNA*       RAIN      42  40  93 W14G22    29.43S
$$

ILZ003-004-008-010-011-017-018-271100-
NORTH CENTRAL ILLINOIS

CITY           SKY/WX    TMP DP  RH WIND       PRES   REMARKS
ROCKFORD       RAIN      46  43  89 NW16G24   29.36S FOG
FREEPORT*      RAIN      42  41  97 W12       29.39F
ROCHELLE*      RAIN      44  44  97 W16       29.37R
DE KALB*       RAIN      47  47  97 NW16G22   29.32F
PERU*          LGT RAIN  43  42  95 W16       29.40R
$$

ILZ005-006-012>014-019>023-271100-
NORTHEAST ILLINOIS

CITY           SKY/WX    TMP DP  RH WIND       PRES   REMARKS
CHICAGO-OHARE  LGT RAIN  60  55  83 S17G26    29.29F
CHICAGO-MIDWAY CLOUDY    60  57  89 S12       29.31F
AURORA         LGT RAIN  51  49  92 W17       29.32S
LANSING*       CLOUDY    58  56  93 S16       29.33F
JOLIET*        RAIN      59  57  95 S10G16    29.31F
WAUKEGAN       LGT RAIN  55  55 100 S9        29.29S FOG
DUPAGE AIRPORT LGT RAIN  58  57  97 S18G25    29.28F
KANKAKEE*      RAIN      57  56  96 S16G22    29.34S
WHEELING       LGT RAIN  59  58  96 S14G24    29.30F
MORRIS*        RAIN      51  49  94 W18       29.32R
ROMEOVILLE*    DRIZZLE   57  57 100 S14       29.30F
NORTHERLY ISL    N/A     59  55  87 S9          N/A
$$

LMZ740>746-271100-
SOUTHERN LAKE MICHIGAN

STATION/POSITION SKY/WX   TEMP    WIND        PRES    VSBY  WAVE
                          AIR SEA DIR/SP/G                  HT/PER
                          (F)     (DEG/KT/KT) (MB)    (MI)  (FT/S)
SOUTHERN BUOY              47 42  120/ 12/ 12  994.4          0
HARRISON CRIB              59     180/ 21/ 23   N/A
BURNHAM HARBOR             59     190/  8/ 15   N/A
CALUMET HARBOR             60     160/ 12/ 16  992.4F
BURNS HARBOR               61     180/ 13/ 21  994.2S
MICHIGAN CITY              60     160/ 11/ 14   N/A
MICHIGAN CITY 6N           58 49                N/A           2/ 3
ST. JOSEPH                 58 49  180/ 16/ 23  994.5          2/ 2
$$

ILZ025>027-034>036-040-047-049-050-058-095>099-271100-
WEST-CENTRAL ILLINOIS

CITY           SKY/WX    TMP DP  RH WIND       PRES   REMARKS
QUINCY         CLOUDY    42  40  92 W16       29.55R
GALESBURG*     LGT RAIN  40  39  97 W16G24    29.45F
MACOMB*        DRIZZLE   40  39  95 W21       29.54R
JACKSONVILLE*  CLOUDY    42  40  91 W17G23    29.53R
PITTSFIELD*    CLOUDY    44  42  93 W6        29.56R
$$

ILZ028>032-037-038-041>044-048-051>054-059>061-271100-
CENTRAL ILLINOIS

CITY           SKY/WX    TMP DP  RH WIND       PRES   REMARKS
PONTIAC        LGT RAIN  47  47  99 W24G30    29.39R
BLOOMINGTON    LGT RAIN  45  43  93 W18G24    29.42R
DECATUR        CLOUDY    46  46 100 W18G24    29.47R
PEORIA         CLOUDY    44  42  93 W13       29.47R
LACON*         LGT RAIN  43  42  97 NW15G22   29.41S
LINCOLN*       CLOUDY    45  44  96 W10G17    29.46R
SPRINGFIELD    CLOUDY    46  32  58 W13       29.50R
TAYLORVILLE    CLOUDY    45  42  91 W15G21    29.51R
$$

ILZ033-039-045-046-055>057-062-063-271100-
EAST-CENTRAL ILLINOIS

CITY           SKY/WX    TMP DP  RH WIND       PRES   REMARKS
CHAMPAIGN      CLOUDY    49  46  90 W24G31    29.43R
RANTOUL*       LGT RAIN  53  51  92 W25G32    29.41R
MATTOON        CLOUDY    49  47  93 W17G29    29.48R
PARIS*         CLOUDY    56  54  94 SW22      29.46R
$$

ILZ079-100>102-271100-
SOUTHWEST ILLINOIS

CITY           SKY/WX    TMP DP  RH WIND       PRES   REMARKS
ALTON          CLOUDY    46  44  90 W10G18    29.58R
BELLEVILLE     CLOUDY    48  48 100 W6        29.56R
CAHOKIA*       CLOUDY    49  43  80 W10       29.59R
SPARTA*        CLOUDY    48  46  93 W8        29.61R
$$

ILZ064>066-069>071-074>076-080>082-084>086-088>090-092>094-271100-
SOUTH-CENTRAL ILLINOIS

CITY           SKY/WX    TMP DP  RH WIND       PRES   REMARKS
CARBONDALE     CLOUDY    50  48  93 W9        29.61R
CAIRO*         CLOUDY    50  46  85 W10G17    29.65R
EFFINGHAM*     CLOUDY    49  48  96 W13G21    29.53R
MARION         CLOUDY    52  50  93 W6        29.61R
MT. VERNON     CLOUDY    50  47  89 W9        29.58R
CENTRALIA*     CLOUDY    50  48  94 W14       29.56R
SALEM*         CLOUDY    51  47  84 W14G22    29.56R
METROPOLIS*    CLOUDY    51  48  89 W9        29.63R
$$

ILZ067-068-072-073-078-083-087-091-271100-
SOUTHEAST ILLINOIS

CITY           SKY/WX    TMP DP  RH WIND       PRES   REMARKS
LAWRENCEVILLE  CLOUDY    56  53  90 W20       29.53R
FLORA*         CLOUDY    52  48  87 W12G17    29.55R
FAIRFIELD*     CLOUDY    51  49  93 W5        29.55R
HARRISBURG*    CLOUDY    51  48  90 W14       29.59R
ROBINSON*      CLOUDY    55  53  94 W18G25    29.52R
CARMI*         CLOUDY    52  50  95 W17G23    29.56R
$$

ABBREVIATIONS USED IN REMARKS
   TC - TEMPERATURE IN CELSIUS
  WCI - WIND CHILL INDEX
   HX - HEAT INDEX
  VSB - VISIBILITY
$$





USA.gov is the U.S. government's official web portal to all federal, state and local government web resources and services.